SL-16 DEB, 22348

Orbit data source: Space-Track

SL-16 DEB, 22348 is space debris in LEO originally from a launch on Fri, 25 Dec 1992 UTC launched from the Tyuratam Missile And Space Complex (TTMTR). Debris objects in space refer to the collection of defunct objects orbiting the Earth. Examples of debris include non-operational satellites, rocket bodies, and fragments generated from explosions, collisions, or faulty payload assembly.

Loading next visibility...
Identifier
22348, 1992-093AM
Orbit
LEO
Country
Flag of CISCIS
Related business
Manufacturer
Unknown
Mission
Spacecraft
Bus & Motor
Unknown
Mass
Unknown
Launch date (UTC)
1992-12-25 (33 years ago)
Launch vehicle
Unknown
Launch site
Tyuratam Missile And Space Complex (TTMTR)
Object type
Payload
Rocket body
Debris
Shape & HBR
Unknown
Radar Cross Section
Small (<0.1 m²)

Expand to show TLE details & history
Last TLE update: 1 day ago

TLE from 1 day ago
0 SL-16 DEB
1 22348U 92093AM  25242.02067236  .00000538  00000-0  32050-3 0  9992
2 22348  71.2585  86.7955 0102659 108.8292  41.9253 14.08985129672367
Epoch: 2025-08-30T00:29Z
TLE epoch observation values (Epoch: 2025-08-30T00:29:46.091Z)
Latitude
26.86557°
Longitude
-88.95124°
Altitude
810.649 km
Speed
7.479 km/s
True Right ascension
17h 07m 48s
True Declination
26° 43' 42"
Sunlit
Object was in daylight at epoch
Visualization orbit readout
Latitude
Unknown
Longitude
Unknown
Altitude
Unknown
Speed
Unknown
Apparent Right ascension
Unknown
Apparent Declination
Unknown
Sunlit
N/A
Visualization observer readout
Local Sidereal Time
16:00:01
Azimuth
Unknown
Elevation
Unknown
Doppler factor
Unknown
Orbital elements
Apogee altitude
935.066 km
Perigee altitude
786.438 km
Semi-major axis
7,238.889 km
Eccentricity
0.01027
Inclination
71.2585°
RAAN
86.7955°
Arg. of periapsis
108.8292°
True anomaly
42.71886°
Mean anomaly
41.9253°
Eccentric anomaly
42.32132°
Mean motion
3.524 °/min
Orbital period
102.16 mins
BSTAR
0.0003205
Loading maneuver chart data...
Computing Atmospheric mass density...
Loading historical data...
Loading historical data...
Loading historical data...
Loading historical data...
Loading historical data...
Loading historical data...
Loading historical data...

Documentation

Showing up to 5 results
|